User: anonymous   Login
Location: ????????
(55.3155°N, 39.2900°E)
Time: 05:34:53
(UTC+00:00)
Language:

Cosmos 921 Rocket - Orbit

View from above orbital plane
View from above orbital plane
View from above satellite
View from above satellite

Ground track
Ground track

The orbit data is extracted from the following two-line orbital elements,

1 10096U 77055B   24174.32635622  .00000798  00000-0  82806-4 0  9999
2 10096  75.8332 126.0425 0041151 158.6365 201.6557 14.90365395543353
Epoch (UTC): 22 June 2024 07:49:57
Eccentricity: 0.0041151
inclination: 75.8332°
perigee height: 568 km
apogee height: 625 km
right ascension of ascending node: 126.0425°
argument of perigee: 158.6365°
revolutions per day: 14.90365395
mean anomaly at epoch: 201.6557°
orbit number at epoch: 54335

The dashed part of the orbit path shows where the satellite is in the earth's shadow,  

DLR